Ft Lauderdale, FL

6:52 AM EDT on May 28, 2017 (GMT -0400)
Fort Lauderdale-Hollywood International

Weather History for KFLL - August, 2014

Change the Weather History Date:

Tuesday, August 5, 2014

  Actual Average Record
Temperature  
Mean Temperature 84 °F 85 °F  
Max Temperature 92 °F 91 °F 97 °F (1958)
Min Temperature 76 °F 79 °F 67 °F (1958)
Degree Days  
Heating Degree Days 0 0  
Month to date heating degree days 0 0  
Since 1 June heating degree days 0 0  
Since 1 July heating degree days 0 0  
Cooling Degree Days 19 20  
Month to date cooling degree days 95 100  
Year to date cooling degree days 2761 2659  
Since 1 June cooling degree days 1226 1241  
Growing Degree Days 33 (Base 50)    
Moisture  
Dew Point 73 °F    
Average Humidity 73    
Maximum Humidity 94    
Minimum Humidity 52    
Precipitation  
Precipitation T in 0.22 in 1.20 in (1957)
Month to date precipitation 2.35 1.07  
Year to date precipitation 40.77 34.70  
Snow  
Snow 0.00 in - - ()
Month to date snowfall 0.0  
Since 1 June snowfall 0.0  
Since 1 July snowfall 0.0  
Snow Depth 0.00 in    
Sea Level Pressure  
Sea Level Pressure 30.04 in    
Wind  
Wind Speed 5 mph (WSW)    
Max Wind Speed 18 mph    
Max Gust Speed 23 mph    
Visibility 10 miles    
Events      
T = Trace of Precipitation, MM = Missing Value Source: NWS Daily Summary

Daily Weather History Graph

Daily Weather History Graph

Search for Another Location

Airport or City:

Trip Planner

Search our weather history database for the weather conditions in past years. The results will help you decide how hot, cold, wet, or windy it might be!

Date:

Astronomy

Aug. 05, 2014 Rise Set
Actual Time 6:48 AM EDT 8:04 PM EDT
Civil Twilight 6:23 AM EDT 8:28 PM EDT
Nautical Twilight 5:54 AM EDT 8:58 PM EDT
Astronomical Twilight 5:24 AM EDT 9:28 PM EDT
Moon 3:15 PM EDT (8/5) 1:34 AM EDT (8/5)
Length of Visible Light 14h 05m
Length of Day
13h 15m
Waxing Gibbous, 67% of the Moon is Illuminated
Aug 5
Waxing Gibbous
Aug 10
Full
Aug 17
Last Quarter
Aug 25
New
Sep 2
First Quarter

Hourly Weather History & Observations

Time (EDT) Temp. Heat Index Dew Point Humidity Pressure Visibility Wind Dir Wind Speed Gust Speed Precip Events Conditions
12:53 AM 77.0 °F - 72.0 °F 84% 30.03 in 10.0 mi WSW 5.8 mph - N/A   Scattered Clouds
1:53 AM 75.9 °F - 73.0 °F 91% 30.02 in 10.0 mi SW 4.6 mph - N/A   Scattered Clouds
2:53 AM 77.0 °F - 72.0 °F 84% 30.00 in 10.0 mi SW 8.1 mph - N/A   Scattered Clouds
3:53 AM 77.0 °F - 73.0 °F 88% 29.98 in 10.0 mi SW 4.6 mph - N/A   Scattered Clouds
4:53 AM 77.0 °F - 73.0 °F 88% 29.98 in 10.0 mi Calm Calm - N/A   Mostly Cloudy
5:53 AM 78.1 °F - 73.9 °F 87% 29.99 in 10.0 mi Calm Calm - N/A   Mostly Cloudy
6:53 AM 78.1 °F - 73.9 °F 87% 30.02 in 10.0 mi Variable 5.8 mph - N/A   Mostly Cloudy
7:53 AM 80.1 °F 84.5 °F 73.9 °F 81% 30.04 in 10.0 mi SW 4.6 mph - N/A   Scattered Clouds
8:53 AM 82.0 °F 88.6 °F 75.0 °F 79% 30.07 in 10.0 mi SSW 9.2 mph 17.3 mph N/A   Scattered Clouds
9:53 AM 84.9 °F 93.3 °F 75.0 °F 72% 30.07 in 10.0 mi SW 6.9 mph - N/A   Scattered Clouds
10:53 AM 88.0 °F 96.5 °F 73.9 °F 63% 30.08 in 10.0 mi WSW 6.9 mph - N/A   Scattered Clouds
11:53 AM 89.1 °F 95.0 °F 71.1 °F 55% 30.08 in 10.0 mi SW 5.8 mph - N/A   Mostly Cloudy
12:53 PM 91.9 °F 98.4 °F 71.1 °F 50% 30.08 in 10.0 mi WSW 8.1 mph - N/A   Mostly Cloudy
1:53 PM 90.0 °F 97.9 °F 73.0 °F 57% 30.06 in 10.0 mi West 15.0 mph - N/A   Mostly Cloudy
2:53 PM 86.0 °F 92.2 °F 72.0 °F 63% 30.06 in 10.0 mi West 9.2 mph - N/A   Mostly Cloudy
3:53 PM 86.0 °F 93.8 °F 73.9 °F 67% 30.05 in 10.0 mi WSW 6.9 mph - N/A   Overcast
4:53 PM 87.1 °F 96.3 °F 75.0 °F 67% 30.05 in 10.0 mi West 9.2 mph - 0.00 in   Mostly Cloudy
5:53 PM 88.0 °F 97.5 °F 75.0 °F 65% 30.04 in 10.0 mi WSW 3.5 mph - N/A   Scattered Clouds
6:53 PM 88.0 °F 95.6 °F 73.0 °F 61% 30.04 in 10.0 mi Variable 4.6 mph - N/A   Scattered Clouds
7:53 PM 86.0 °F 92.2 °F 72.0 °F 63% 30.04 in 10.0 mi Variable 5.8 mph - N/A   Mostly Cloudy
8:53 PM 84.0 °F 90.2 °F 73.0 °F 69% 30.05 in 10.0 mi Calm Calm - N/A   Scattered Clouds
9:53 PM 82.9 °F 88.8 °F 73.0 °F 72% 30.06 in 10.0 mi Calm Calm - N/A   Partly Cloudy
10:53 PM 84.0 °F 90.2 °F 73.0 °F 69% 30.06 in 10.0 mi Calm Calm - N/A   Partly Cloudy
11:53 PM 82.9 °F 89.4 °F 73.9 °F 74% 30.06 in 10.0 mi SW 5.8 mph - N/A   Clear